User: anonymous   Login
Location: Beang
(6.6177°N, 10.9863°W)
Time: 13:42:38
(UTC+00:00)
Language:

Cosmos 1933 Rocket - Orbit

View from above orbital plane
View from above orbital plane
View from above satellite
View from above satellite

Ground track
Ground track

The orbit data is extracted from the following two-line orbital elements,

1 18959U 88020B   20218.46976278 +.00000075 +00000-0 +62306-5 0  9996
2 18959 082.5375 280.5596 0015880 324.1716 035.8433 14.83444371729288
Epoch (UTC): 05 August 2020 11:16:27
Eccentricity: 0.0015880
inclination: 82.5375°
perigee height: 607 km
apogee height: 629 km
right ascension of ascending node: 280.5596°
argument of perigee: 324.1716°
revolutions per day: 14.83444371
mean anomaly at epoch: 35.8433°
orbit number at epoch: 72928

The dashed part of the orbit path shows where the satellite is in the earth's shadow,  

DLR